DUCHIFAT-3

Last updated on Tue Jul 01 2025 00:03:06 GMT+0000 (Coordinated Universal Time)

1 44854U 19089C 25181.46600802 .00028969 00000+0 53753-3 0 9994 2 44854 36.9412 222.2370 0003853 146.3167 213.7836 15.48066496306252
UTC large
Height (km)
Speed (km/s)
/
Latitude / Longitude
Inclination (degrees)
Orbital Period (minutes)
Azimuth
Elevation
Range (km)
Doppler Factor

Next 0 passes for location: London (51.5072 / 0.1276)

Sorry there are no passes over London.